Temp
19 20 20 21 22 22 20 20 20 20 20 20 20 19 19 19 19 19 19 20 20 19 20 20 20 19 20 21 22 21 21 21 22 22 23 23 22 22 22 21 21 20 19
20 19 20 21 21 21 21 20 20 20 20 20 20 19 19 19 19 19 19 20 19 20 20 20 20 20 20 20 20 21 21 21 21 21 21 21 21 22 22 21 21 20 20
20 20 20 20 20 21 21 21 21 21 21 22 21 20 20 20 20 19 19 19 20 20 20 20 20 20 20 20 21 21 22 22 21 21 21 22 22 22 22 22 22 22 21
22 21 20 19 20 20 21 22 22 22 22 22 22 21 21 20 20 20 20 19 20 20 20 20 20 20 20 20 20 20 20 20 21 21 21 22 23 23 24 23 23 23 23
23 22 21 20 20 20 21 21 22 22 22 22 22 22 22 20 20 21 21 20 20 20 20 20 20 20 20 20 20 21 21 21 21 22 23 23 24 24 23 22 22 22 22
24 23 22 21 20 20 21 21 21 22 22 23 23 22 22 21 22 21 21 22 21 21 21 22 22 21 21 22 22 22 22 22 22 21 21 22 22 21 22 21 21 20 20
24 23 22 21 20 20 21 22 22 23 23 23 23 23 23 23 22 22 22 22 21 22 23 23 22 22 22 22 23 24 24 24 23 23 23 23 23 22 21 20 19 20 19
23 23 22 22 21 21 21 22 22 23 23 23 24 23 23 23 23 23 23 22 22 23 23 23 24 24 24 23 22 22 23 23 24 24 23 23 22 20 19 19 19 19 19
23 23 22 22 21 20 22 23 22 23 23 24 24 24 24 24 24 24 24 23 23 23 24 24 24 24 25 25 24 24 24 24 23 22 22 21 21 20 19 19 19 19 19
22 22 22 21 21 20 21 23 24 23 24 23 23 24 24 24 24 24 24 24 22 22 24 25 25 25 26 26 25 24 24 24 24 23 22 21 20 20 19 19 19 20 19
23 22 22 21 21 20 20 21 22 24 22 23 22 22 22 23 24 25 24 24 23 22 22 22 23 24 24 25 25 24 25 24 23 22 20 20 19 20 20 20 20 20 19
23 22 21 21 21 21 20 20 20 21 21 21 22 21 21 23 24 25 25 25 25 25 24 24 24 24 23 23 23 23 23 23 22 21 20 20 19 19 19 19 20 19 19
22 22 21 20 20 21 21 20 20 20 21 20 21 21 22 23 22 25 26 26 25 25 25 23 23 23 23 22 22 22 22 23 22 21 19 19 19 19 20 20 19 19 19
21 21 21 20 20 20 21 20 21 21 21 22 22 23 23 23 24 23 23 24 25 25 25 24 24 23 22 22 22 22 22 22 21 19 19 19 19 20 19 19 19 19 19
21 21 21 21 20 20 22 22 21 22 23 22 24 24 24 24 24 25 24 24 24 25 25 24 24 23 23 22 20 20 19 20 20 20 19 19 19 19 20 19 19 18 17
20 20 21 22 21 21 21 22 22 23 23 23 24 24 25 25 25 25 24 24 23 22 22 22 21 21 21 21 20 21 20 19 20 20 20 20 20 20 20 19 19 18 17
18 20 21 22 23 22 22 23 22 22 22 22 23 23 23 23 24 23 23 23 22 22 21 21 21 22 22 20 21 20 20 21 20 20 19 20 20 20 19 19 18 17 17
16 19 20 22 23 23 24 23 24 22 22 22 22 22 23 23 22 22 22 22 22 22 21 21 21 21 19 19 20 21 21 21 20 20 20 20 20 20 19 19 18 17 17
14 15 16 19 20 22 22 22 22 21 21 21 23 23 24 24 23 23 22 21 20 21 22 21 21 21 20 20 20 21 21 21 20 20 21 21 20 19 19 18 18 17 17
14 13 15 16 17 18 19 20 19 21 23 23 21 23 24 24 23 24 24 23 23 22 22 23 23 23 23 22 21 21 20 20 20 21 21 21 19 19 19 18 17 17 16
13 13 14 16 17 18 19 20 21 21 23 24 25 23 23 23 23 22 22 22 22 21 20 21 22 23 23 22 20 19 20 19 18 20 21 21 19 19 18 17 17 16 16
11 13 14 14 16 17 18 18 20 20 22 24 24 23 23 22 23 21 22 23 23 21 20 21 21 21 21 21 21 20 19 18 17 20 20 20 19 18 18 17 18 18 16
12 11 13 14 15 15 16 19 21 22 23 24 24 24 23 22 21 21 21 20 21 21 21 20 20 20 20 20 20 19 19 19 18 18 18 18 18 17 17 17 18 18 17
14 11 9 10 12 13 16 18 20 21 21 22 22 23 22 22 21 20 17 18 17 18 19 18 18 19 18 18 18 17 18 18 17 17 16 16 17 17 17 17 16 15 15
9 9 9 10 14 14 14 15 16 17 16 16 18 19 18 18 18 17 17 17 17 17 17 17 17 17 17 17 17 17 17 17 17 18 17 16 16 15 15 16 14 14 14
6 6 7 8 8 10 12 13 14 14 14 14 14 14 14 14 14 14 14 14 14 15 15 16 16 16 17 17 16 16 17 17 16 16 15 15 14 14 14 14 13 13 13
Height
1521 1527 1534 1538 1545 1551 1557 1561 1566 1570 1574 1576 1578 1579 1581 1582 1584 1586 1589 1592 1591 1593 1594 1596 1597 1598 1598 1599 1599 1599 1598 1597 1596 1594 1594 1592 1590 1587 1584 1582 1579 1576 1575
1514 1520 1525 1531 1537 1542 1548 1554 1559 1563 1567 1570 1573 1575 1577 1579 1581 1582 1584 1588 1589 1590 1591 1593 1594 1596 1595 1595 1595 1595 1595 1594 1593 1590 1589 1587 1585 1585 1582 1580 1577 1574 1571
1508 1513 1519 1524 1529 1534 1540 1546 1551 1555 1560 1564 1567 1569 1572 1574 1576 1578 1580 1582 1585 1586 1587 1589 1590 1591 1592 1593 1593 1592 1592 1591 1589 1587 1586 1585 1583 1582 1579 1576 1574 1570 1567
1502 1507 1511 1515 1520 1527 1533 1538 1544 1548 1553 1557 1561 1564 1566 1569 1571 1573 1575 1577 1579 1581 1583 1584 1586 1587 1587 1588 1588 1587 1587 1586 1586 1584 1582 1581 1580 1579 1577 1574 1571 1570 1567
1494 1498 1502 1507 1513 1520 1526 1531 1536 1541 1546 1551 1555 1557 1560 1563 1566 1567 1569 1572 1573 1575 1577 1579 1580 1581 1582 1583 1584 1584 1583 1583 1582 1581 1579 1577 1576 1575 1573 1572 1568 1565 1561
1487 1490 1496 1501 1506 1511 1518 1524 1529 1534 1539 1543 1547 1551 1554 1556 1560 1562 1564 1566 1568 1569 1571 1572 1574 1576 1575 1575 1576 1577 1577 1576 1576 1576 1574 1572 1571 1571 1569 1567 1563 1560 1555
1482 1486 1492 1496 1499 1504 1510 1516 1521 1526 1532 1536 1540 1543 1546 1549 1553 1556 1558 1561 1563 1563 1565 1566 1568 1570 1570 1570 1569 1570 1570 1570 1569 1569 1565 1565 1564 1564 1561 1558 1557 1554 1551
1474 1479 1483 1488 1493 1498 1504 1508 1513 1519 1524 1528 1532 1535 1539 1542 1546 1549 1552 1555 1556 1557 1559 1560 1560 1562 1564 1565 1565 1564 1563 1562 1563 1561 1559 1557 1557 1557 1556 1554 1550 1547 1545
1465 1469 1474 1480 1486 1491 1495 1500 1506 1512 1517 1521 1524 1528 1531 1534 1538 1542 1545 1547 1548 1550 1552 1553 1554 1554 1555 1557 1557 1556 1556 1555 1557 1556 1555 1554 1553 1552 1551 1548 1545 1543 1542
1454 1460 1469 1474 1480 1484 1488 1493 1499 1505 1509 1514 1517 1519 1523 1526 1530 1534 1537 1540 1541 1543 1544 1544 1545 1546 1547 1549 1549 1548 1546 1548 1549 1548 1548 1547 1546 1545 1544 1542 1541 1540 1538
1453 1459 1464 1468 1473 1478 1484 1489 1493 1496 1503 1506 1511 1513 1516 1518 1521 1524 1528 1531 1533 1536 1536 1538 1538 1537 1539 1540 1541 1540 1540 1542 1542 1541 1540 1541 1540 1540 1540 1538 1537 1536 1535
1446 1451 1456 1461 1466 1473 1477 1481 1486 1491 1495 1499 1503 1507 1510 1511 1513 1516 1519 1522 1525 1527 1529 1532 1533 1534 1533 1534 1534 1534 1535 1535 1533 1533 1533 1534 1534 1534 1535 1534 1533 1532 1530
1441 1446 1450 1455 1460 1466 1468 1474 1479 1484 1489 1493 1497 1500 1503 1506 1506 1507 1510 1513 1516 1518 1520 1524 1524 1526 1527 1526 1527 1527 1528 1527 1527 1526 1527 1527 1528 1528 1527 1526 1527 1525 1525
1436 1441 1445 1449 1454 1459 1463 1468 1473 1478 1482 1487 1490 1494 1498 1500 1502 1504 1502 1504 1507 1509 1511 1514 1516 1517 1518 1519 1520 1520 1519 1519 1520 1520 1520 1520 1522 1522 1521 1518 1520 1519 1518
1433 1436 1440 1445 1448 1454 1459 1462 1466 1472 1476 1479 1484 1488 1492 1494 1496 1499 1501 1498 1499 1500 1504 1506 1508 1510 1510 1511 1512 1513 1514 1513 1512 1513 1514 1514 1515 1515 1514 1514 1514 1514 1512
1429 1431 1436 1440 1444 1449 1454 1457 1461 1466 1469 1473 1477 1482 1487 1489 1489 1492 1494 1495 1496 1497 1498 1499 1501 1503 1505 1506 1505 1504 1506 1506 1506 1506 1507 1507 1506 1507 1507 1508 1507 1508 1511
1422 1428 1434 1436 1440 1444 1448 1452 1453 1458 1462 1466 1470 1474 1477 1478 1482 1486 1490 1493 1492 1491 1492 1496 1496 1498 1498 1496 1497 1496 1496 1497 1498 1498 1498 1498 1498 1499 1499 1500 1501 1503 1505
1421 1422 1427 1434 1435 1440 1443 1446 1449 1451 1454 1459 1464 1468 1472 1475 1476 1479 1483 1487 1490 1487 1486 1489 1491 1491 1489 1489 1492 1493 1493 1494 1492 1491 1491 1492 1492 1492 1493 1494 1495 1497 1499
1419 1420 1422 1424 1427 1433 1437 1441 1445 1449 1452 1452 1454 1457 1459 1463 1469 1472 1475 1479 1483 1486 1484 1481 1483 1485 1484 1484 1485 1486 1488 1488 1486 1484 1485 1485 1485 1486 1486 1488 1490 1492 1493
1424 1426 1424 1428 1429 1430 1431 1440 1446 1449 1447 1449 1453 1454 1451 1452 1458 1463 1466 1470 1473 1476 1478 1478 1478 1479 1479 1479 1480 1480 1480 1479 1479 1478 1478 1479 1478 1479 1480 1482 1484 1486 1486
1432 1434 1436 1434 1436 1443 1429 1435 1445 1447 1443 1442 1443 1444 1446 1452 1456 1455 1461 1463 1466 1468 1470 1470 1470 1472 1472 1471 1471 1471 1472 1473 1474 1471 1471 1471 1471 1472 1475 1477 1478 1479 1481
1433 1433 1431 1422 1431 1443 1432 1445 1442 1443 1443 1441 1431 1436 1453 1453 1451 1455 1462 1465 1465 1464 1464 1463 1464 1466 1466 1464 1464 1465 1465 1466 1466 1464 1464 1465 1465 1467 1469 1472 1473 1473 1474
1423 1422 1432 1436 1432 1425 1433 1447 1440 1442 1448 1444 1443 1453 1452 1454 1455 1458 1461 1461 1460 1459 1459 1459 1459 1460 1460 1459 1459 1459 1458 1459 1459 1458 1459 1460 1461 1463 1465 1466 1468 1468 1469
1419 1422 1429 1430 1425 1430 1439 1437 1436 1441 1444 1444 1445 1447 1448 1449 1451 1453 1450 1446 1447 1449 1453 1454 1454 1455 1454 1454 1454 1452 1450 1449 1451 1451 1452 1455 1456 1458 1459 1460 1460 1460 1461
1422 1426 1429 1423 1420 1425 1426 1426 1427 1432 1430 1429 1433 1437 1438 1438 1439 1439 1439 1439 1440 1442 1442 1443 1444 1443 1442 1442 1442 1443 1443 1444 1444 1444 1447 1450 1450 1451 1451 1453 1451 1452 1454
1419 1419 1417 1418 1422 1422 1421 1421 1424 1427 1428 1430 1432 1433 1434 1434 1433 1432 1431 1431 1433 1433 1435 1437 1438 1437 1436 1438 1438 1437 1437 1437 1438 1439 1440 1442 1443 1442 1443 1443 1444 1445 1446
Wind_Speed
43 44 43 42 40 40 36 31 31 24 21 22 18 15 15 16 16 18 17 14 13 12 14 11 12 12 11 10 11 11 11 12 14 13 12 14 19 22 27 29 31 28 22
41 45 45 45 42 39 42 39 33 29 27 25 22 20 17 18 18 18 17 16 17 16 14 14 14 13 16 13 14 14 14 15 15 21 18 19 19 19 22 24 27 22 22
39 41 43 45 44 44 38 40 36 33 32 28 26 24 22 20 20 20 19 18 18 16 16 16 16 16 18 16 17 16 15 17 16 17 20 20 22 21 21 21 22 24 22
36 39 43 45 45 45 43 40 39 37 35 32 30 28 26 23 22 22 21 21 21 19 19 18 18 19 19 19 19 20 19 20 19 20 21 21 21 21 21 22 21 24 25
41 40 44 46 46 44 45 44 42 39 39 35 33 31 29 26 24 25 24 24 22 21 21 20 19 20 21 22 19 18 18 19 19 20 22 23 23 22 21 26 26 29 31
41 44 42 44 44 46 46 45 43 42 39 36 36 34 33 28 26 27 26 25 26 25 24 23 23 25 27 27 27 27 26 28 30 28 28 28 29 27 26 29 27 28 27
40 41 40 41 43 45 45 44 44 43 40 39 38 36 36 35 30 29 29 29 26 26 26 26 25 22 24 26 27 27 28 29 32 34 38 38 39 36 33 27 21 26 25
42 40 42 42 43 44 43 45 45 44 41 40 39 39 39 38 35 33 33 32 31 31 31 31 32 31 30 31 32 34 35 35 34 33 36 36 34 26 25 28 30 29 25
42 47 45 45 44 43 47 48 47 45 43 42 42 41 41 40 38 35 34 34 35 35 34 34 35 36 35 35 35 36 37 38 34 33 34 33 29 26 26 24 25 21 20
48 47 44 44 43 44 47 49 48 46 45 40 40 43 42 41 39 38 36 36 32 33 35 36 37 37 36 35 36 36 38 36 34 31 30 28 22 20 22 18 19 21 20
36 38 41 42 43 42 40 42 46 47 36 42 36 37 39 40 41 41 38 38 35 30 30 30 29 30 29 29 31 34 36 33 32 31 26 21 23 20 18 16 20 21 21
33 36 39 39 39 35 39 38 36 39 40 37 39 35 31 40 39 39 38 38 37 38 36 28 26 26 29 30 30 30 28 26 28 29 25 22 22 19 20 20 22 20 21
31 33 35 36 37 35 37 37 34 35 32 32 29 30 30 27 29 36 36 35 34 37 37 31 31 31 31 32 33 31 28 30 31 29 24 23 21 19 20 23 22 24 23
28 31 32 34 36 39 32 30 30 29 29 28 28 28 25 25 27 24 27 31 34 36 37 37 36 35 35 35 31 31 32 32 29 25 25 22 18 19 24 23 22 22 21
24 26 29 30 32 35 32 30 29 28 28 27 27 23 24 24 24 24 23 25 24 31 32 34 34 35 36 34 28 26 26 25 25 25 25 24 19 23 27 26 27 18 17
22 26 27 27 27 30 32 29 29 27 30 28 25 24 18 23 23 24 28 29 23 20 19 23 24 23 25 23 27 30 24 25 27 28 29 28 30 30 29 27 25 17 12
12 23 24 26 27 29 29 29 26 31 27 32 32 29 28 21 26 23 24 28 32 29 27 18 19 20 23 30 26 24 24 24 24 26 27 28 28 26 25 24 23 17 13
10 16 13 24 23 26 26 25 24 20 23 27 23 18 21 28 28 23 29 27 29 30 31 23 23 24 27 25 19 19 19 19 23 23 22 24 25 24 24 24 22 17 15
4 7 7 11 19 21 22 21 20 21 21 23 21 14 7 5 12 25 31 33 29 24 22 22 23 23 23 21 20 20 22 22 23 23 23 25 25 23 26 26 20 20 18
4 9 5 1 9 10 12 12 14 11 12 22 19 11 9 10 16 20 25 26 29 32 26 24 24 23 23 24 22 23 23 26 27 25 25 27 27 27 26 25 19 19 20
4 5 4 5 3 4 12 8 10 15 15 12 15 11 8 15 16 6 13 19 20 25 25 23 24 23 24 28 22 20 25 26 21 23 24 25 24 26 21 18 19 20 18
2 3 2 6 3 3 1 9 9 7 12 25 11 9 24 20 21 13 16 17 18 17 14 17 20 21 22 23 24 21 20 20 20 23 24 24 22 22 19 20 22 21 19
6 7 2 2 1 1 8 15 9 13 14 14 17 20 17 16 14 18 18 16 15 14 14 18 22 19 20 21 22 22 22 23 21 21 20 19 19 20 22 24 22 22 24
2 1 1 2 2 5 5 5 5 7 10 12 11 13 12 12 12 12 16 15 13 15 14 15 16 17 16 18 17 18 21 24 22 19 18 16 17 20 24 23 24 24 24
2 4 5 2 2 6 9 9 10 13 8 8 15 17 18 17 19 18 19 18 13 15 21 23 23 20 21 24 24 23 23 23 24 23 20 18 20 20 19 22 23 26 27
7 5 6 4 4 6 6 10 13 13 13 14 15 18 19 21 22 22 20 18 16 20 25 28 30 31 32 35 34 32 31 29 28 27 25 17 20 19 21 27 28 27 24
Wind_Direction
210 210 213 218 218 217 210 217 217 213 214 226 214 223 220 218 217 222 211 215 235 232 220 228 246 245 241 246 258 262 262 262 272 281 281 282 286 291 307 313 317 315 306
209 209 214 215 216 219 220 218 223 225 224 222 230 225 226 220 220 223 225 222 225 225 230 236 240 247 263 257 244 251 255 257 268 277 280 286 295 304 304 305 307 306 306
210 210 211 212 216 217 219 220 221 228 230 229 230 229 229 224 221 225 226 226 220 230 231 238 244 246 251 247 249 256 267 281 281 281 288 289 289 295 300 305 303 301 305
211 210 212 213 214 218 218 224 223 227 232 231 231 232 231 231 229 224 229 229 226 230 232 236 242 246 250 254 262 264 266 268 271 276 284 290 295 299 299 300 305 304 306
208 209 212 213 215 214 218 221 226 227 230 232 232 232 233 230 229 235 228 231 239 235 230 237 245 245 244 246 249 262 265 272 274 278 282 288 292 297 299 302 302 304 300
209 210 210 212 212 214 218 220 222 227 228 230 230 233 234 230 230 232 241 238 236 242 247 250 249 243 253 261 264 267 266 266 268 271 276 280 281 291 292 295 295 299 301
212 212 210 212 212 215 218 218 222 224 226 229 231 233 236 238 229 232 239 243 242 251 254 257 258 253 265 274 277 276 274 271 273 277 278 281 287 293 301 305 302 295 299
211 212 210 210 214 217 213 217 221 224 225 229 232 235 238 241 240 239 241 244 248 248 253 261 266 265 259 257 263 271 278 282 285 285 286 290 294 301 298 296 296 298 302
213 211 211 209 211 214 218 220 221 224 227 230 234 237 238 241 241 241 243 246 249 252 256 258 261 265 269 273 274 273 274 274 274 272 276 284 288 288 289 295 294 303 302
213 213 211 210 211 213 219 221 224 227 230 230 232 237 239 242 244 244 245 245 245 252 259 261 262 264 266 268 268 270 273 277 282 281 277 278 284 286 297 292 301 301 300
215 212 211 211 212 214 216 220 224 228 221 231 226 234 239 242 245 247 246 245 243 245 248 250 261 272 273 268 267 268 270 276 275 275 280 283 279 285 285 285 290 287 293
211 208 208 210 210 214 214 218 217 221 222 221 231 228 235 245 247 248 248 248 249 249 245 247 256 261 266 272 273 271 273 272 268 268 271 270 271 274 272 269 272 282 292
204 206 208 208 209 205 215 214 214 218 215 221 225 228 230 236 247 247 249 247 246 246 247 244 242 245 251 257 263 268 269 266 267 265 263 263 269 281 273 267 270 283 294
204 205 207 208 206 202 210 210 208 211 214 216 221 226 231 231 233 240 251 247 244 243 245 248 247 244 244 249 257 263 267 267 261 259 263 264 268 261 260 272 285 279 291
209 207 208 208 209 207 202 205 207 210 216 215 216 221 227 233 235 233 236 255 254 246 242 243 248 249 253 255 256 253 253 258 265 266 261 261 254 251 260 275 280 273 282
208 205 205 203 206 202 200 202 201 208 215 215 219 216 223 230 236 228 229 230 237 249 247 236 239 243 246 250 248 255 255 257 254 260 258 260 265 269 268 269 265 258 241
180 205 206 199 201 198 199 199 199 205 211 215 217 216 215 224 224 236 233 235 233 235 237 239 241 240 245 248 259 266 271 269 260 257 258 263 269 270 266 260 248 247 232
111 149 176 202 200 199 198 197 197 191 203 215 216 215 229 233 244 233 242 246 250 242 240 242 244 248 251 255 253 260 265 261 263 265 266 270 269 265 259 244 246 239 229
58 94 105 144 169 182 184 187 190 195 197 179 179 186 196 274 279 256 250 247 250 254 251 252 248 250 257 260 263 259 254 255 250 260 272 271 267 260 251 246 243 228 227
71 28 24 152 132 136 169 202 228 224 217 211 205 216 246 264 269 289 262 253 251 251 247 247 250 255 257 252 248 251 254 251 261 264 271 271 263 257 251 250 228 231 228
123 73 56 77 58 256 149 150 219 220 210 232 240 224 286 263 252 278 273 280 272 258 250 248 247 249 255 256 255 255 262 259 254 262 270 272 263 253 245 233 233 232 233
43 68 91 66 188 234 355 256 202 218 276 266 264 247 241 250 244 254 257 251 254 266 265 254 251 250 252 259 260 262 262 254 257 266 267 263 258 247 238 229 235 233 234
25 29 11 192 210 89 231 240 199 207 218 212 204 219 240 257 249 241 248 251 252 261 261 264 253 251 249 248 245 245 245 248 249 259 265 258 247 239 235 239 238 237 234
333 270 248 289 215 169 236 271 251 234 233 227 238 243 243 230 226 230 235 246 249 245 253 258 252 257 255 246 250 256 255 244 247 254 250 240 239 240 241 243 238 236 241
160 235 248 263 247 219 189 191 190 199 193 195 208 216 220 220 224 240 266 273 265 242 235 231 234 221 217 224 222 223 232 239 243 232 226 239 242 242 245 243 237 243 235
35 13 1 350 283 266 243 226 233 241 247 252 253 255 260 262 264 271 275 272 262 250 248 252 257 253 243 245 244 244 240 238 242 249 247 239 245 249 246 243 245 241 232